Regional Weather Roundup
Issued by NWS Upton, NY

Current Version | Previous Version | Graphics & Text | Print | Product List | Glossary Off
Versions: 1 2 3 4 5 6 7 8 9 10 11 12 13 14 15 16 17 18 19 20 21 22 23 24 25 26 27

000
ASUS41 KOKX 150905
RWROKX

REGIONAL WEATHER ROUNDUP
NATIONAL WEATHER SERVICE NEW YORK NY
500 AM EDT TUE APR 15 2014

NOTE: "FAIR" INDICATES FEW OR NO CLOUDS BELOW 12,000 FEET WITH NO
SIGNIFICANT WEATHER AND/OR OBSTRUCTIONS TO VISIBILITY.

NYZ071-072-176-178-NJZ106-104-151000-
NEW YORK CITY METRO AREA


CITY           SKY/WX    TMP DP  RH WIND       PRES   REMARKS
CENTRAL PARK   LGT RAIN  60  56  86 VRB6      29.81F FOG
LAGUARDIA APRT RAIN      55  54  94 S15       29.79F FOG
KENNEDY INTL   RAIN      53  52  96 S23       29.82F VSB 1/8
NEWARK/LIBERTY LGT RAIN  63  60  90 S7        29.78F
TETERBORO      LGT RAIN  64  57  78 S10       29.78F
$$

NYZ177-179-078>081-151000-
LONG ISLAND NEW YORK

CITY           SKY/WX    TMP DP  RH WIND       PRES   REMARKS
FARMINGDALE    FOG       54  54 100 S17G24    29.84F VSB 1/2
ISLIP          FOG       56  54  93 S20G28    29.83F VSB 1
SHIRLEY        FOG       55  54  96 S18G26    29.86F VSB 3/4
WESTHAMPTON    CLOUDY    55  53  93 S15G26    29.87F FOG
MONTAUK POINT    N/A     54  52  93 S9        29.90F
$$

NYZ052-065-067-151000-
HUDSON VALLEY

CITY           SKY/WX    TMP DP  RH WIND       PRES   REMARKS
WHITE PLAINS   FOG       57  56  96 S8        29.80F VSB 1/4
NEWBURGH       MOCLDY    61  57  88 S16       29.79R
MONTGOMERY     LGT RAIN  63  56  78 S7        29.74F
POUGHKEEPSIE   CLOUDY    63  56  78 SE12      29.75F
ALBANY         CLOUDY    64  54  69 S18G30    29.68F
$$

NJZ001-105-106-008-010-013-015-019>022-104-151000-
NEW JERSEY

CITY           SKY/WX    TMP DP  RH WIND       PRES   REMARKS
NEWARK/LIBERTY LGT RAIN  63  60  90 S7        29.78F
TETERBORO      LGT RAIN  64  57  78 S10       29.78F
CALDWELL       LGT RAIN  63  59  87 S9G18     29.77F
MORRISTOWN     CLOUDY    64  59  82 S6        29.77F
SOMERVILLE     LGT RAIN  62  59  90 SE8       29.74F
LINDEN         LGT RAIN  65  61  87 S6        29.80F
SUSSEX         CLOUDY    64  58  80 S10       29.74F
ANDOVER          N/A     61  59  93 S8        29.74F
TRENTON        LGT RAIN  62  59  90 S9        29.75F
MILLVILLE      CLOUDY    61  61 100 S10       29.79F
ATLANTIC CITY  LGT RAIN  58  57  97 S14G21    29.80F FOG
WRIGHTSTOWN    CLOUDY    63  61  94 S9        29.76F
TOMS RIVER     CLOUDY    61  57  88 S15       29.80F
BELMAR         CLOUDY    61  55  82 S9G17     29.80F
$$

PAZ047>061-062-071-151000-
EASTERN PENNSYLVANIA

CITY           SKY/WX    TMP DP  RH WIND       PRES   REMARKS
PHILADELPHIA   CLOUDY    63  58  83 S13G22    29.75F
ALLENTOWN      CLOUDY    63  58  83 S12G18    29.71F
SCRANTON       CLOUDY    64  56  75 S16G26    29.66F
$$

CTZ002-004>006-009-010-012-RIZ004-006-007-MAZ004-011-015-151000-
SOUTHERN NEW ENGLAND
 IN CT

CITY           SKY/WX    TMP DP  RH WIND       PRES   REMARKS
BRADLEY INTL   CLOUDY    60  57  89 S16       29.81F
HARTFORD       CLOUDY    59  57  93 S12G20    29.83F
DANBURY        CLOUDY    59  57  93 S14G22    29.81F
WTRBRY/OXFORD  CLOUDY    57  54  88 S14G25    29.86S VSB 1
BRIDGEPORT     CLOUDY    55  55 100 SW14      29.83F FOG
MERIDEN        CLOUDY    57  55  93 S13       29.85F FOG
NEW HAVEN      FOG       54  53  97 SE3       29.85F VSB 1/2
CHESTER        FOG       55  55 100 S10       29.87F VSB 1/4
GROTON         LGT RAIN  51  50  96 SE7       29.88F FOG
WILLIMANTIC    LGT RAIN  59  57  93 S10G21    29.86F FOG

 IN RI

CITY           SKY/WX    TMP DP  RH WIND       PRES   REMARKS
PROVIDENCE     CLOUDY    58  56  93 S18G30    29.90F
BLOCK ISLAND   CLOUDY    50  46  87 S18       29.91F
WESTERLY       LGT RAIN  51  50  96 S8        29.90F FOG

 IN MA

CITY           SKY/WX    TMP DP  RH WIND       PRES   REMARKS
BOSTON         CLOUDY    60  55  83 S17       29.88R
WORCESTER      CLOUDY    59  57  93 S17G24    29.85F
WESTFIELD      CLOUDY    63  57  81 S14G28    29.80F
PROVINCETOWN   MOCLDY    52  48  87 MISG      29.93S
NANTUCKET      CLOUDY    50  47  89 S14       29.97S
$$

ANZ330-335-338-340-345-350-353-355-151000-
COASTAL MARINE OBSERVATIONS


STATION/POSITION TIME  SKY/WX   TEMP    WIND        PRES    VSBY  WAVE
                                AIR SEA DIR/SP/G                  HT/PER
                 (UTC)          (F)     (DEG/KT/KT) (MB)    (MI)  (FT/S)
NY HARB ENTRANCE 0900            47 43  190/ 16/ 17 1009.7
4S FIRE IS       0800               45                N/A           7/ 7
23SW MTP         0900            51 43  190/ 19/ 21 1011.7          6/ 7
HUDSON CANYON    0800            52 46  190/ 14/ 16 1012.8          7/ 8
EXECUTION ROCKS  0900            55 43  200/ 16/ 23   N/A
WESTERN LI SOUND 0900            56     190/ 19/ 25   N/A           2/ 3
CENTRAL LI SOUND 0800            49 41  190/ 12/ 14   N/A           3/ 4
EASTERN LI SOUND NOT AVBL
ROBBINS REEF     0900            58     160/ 17/ 18   N/A
$$


>>>>>>>>>>>>>>>>>>>>>>>>>>>> KEY <<<<<<<<<<<<<<<<<<<<<<<<<<<
>                                                          <
>     SKY/WX - SKY CONDITION/PRESENT WEATHER               <
>     TMP    - TEMPERATURE IN FAHRENHEIT                   <
>     DP     - DEWPOINT IN FAHRENHEIT                      <
>     RH     - RELATIVE HUMIDITY IN PERCENT                <
>     WIND   - DIRECTION AND SPEED IN MPH                  <
>     PRES   - MEAN SEA LEVEL PRESSURE IN INCHES OF HG     <
>     WCI    - WIND CHILL INDEX                            <
>     VSB    - VISIBILITY IN MILES                         <
>     HX     - HEAT INDEX                                  <
>     TC     - TEMPERATURE IN CELSIUS                      <
>     VRB    - VARIABLE WIND DIRECTION                     <
>                                                          <
>>>>>>>>>>>>>>>>>>>>>>>>>>>> KEY <<<<<<<<<<<<<<<<<<<<<<<<<<<





USA.gov is the U.S. government's official web portal to all federal, state and local government web resources and services.